PBO Station Position Time Series. Reference Frame : NAM14
Format Version,1.1.0
4-character ID,WORG
Station name,Onyx_Ranch_GPS
Begin Date, 2015-08-11
End Date, 2019-10-07
Release Date, 2019-10-08
Reference position, 35.6955686509 North Latitude, -118.2423871105 East Longitude, 798.39338 meters elevation,
Date, North (mm), East (mm), Vertical (mm), North Std. Deviation (mm), East Std. Deviation (mm),              Vertical Std. Deviation (mm), Quality,
2015-08-11,0.00, 0.00, 0.00, 2.40, 2.06, 10.50, repro,
2015-08-12,-0.43, -0.46, 11.45, 2.38, 2.01, 10.29, repro,
2015-08-13,0.70, 0.65, 0.05, 2.39, 2.02, 10.42, repro,
2015-08-14,1.42, 1.35, 1.37, 2.37, 2.01, 10.33, repro,
2015-08-15,1.13, 0.70, -4.29, 2.32, 2.00, 10.15, repro,
2015-08-16,2.99, 1.71, 1.74, 2.39, 1.98, 10.44, repro,
2015-08-17,2.40, 2.09, 5.05, 2.38, 1.97, 10.27, repro,
2015-08-18,0.73, 0.09, -0.54, 2.36, 1.98, 10.15, repro,
2015-08-19,0.27, -1.75, 7.38, 2.36, 2.02, 10.39, repro,
2015-08-20,-0.52, -0.95, 1.11, 2.34, 1.99, 10.23, repro,
2015-08-21,2.07, 0.38, -13.78, 2.37, 2.04, 10.61, repro,
2015-08-22,5.38, 3.49, -14.77, 2.34, 1.95, 10.10, repro,
2015-08-23,0.79, -1.06, 3.85, 2.37, 2.00, 10.30, repro,
2015-08-24,-0.90, 1.51, -6.32, 2.37, 1.98, 10.24, repro,
2015-08-25,-1.07, 1.31, -8.59, 2.41, 2.04, 10.56, repro,
2015-08-26,0.39, 1.19, -7.58, 2.44, 2.04, 10.39, repro,
2015-08-27,1.85, 2.10, -10.46, 2.36, 1.97, 10.28, repro,
2015-08-28,2.44, 2.00, -10.38, 2.59, 2.51, 12.15, repro,
2015-08-29,0.13, -0.20, 6.52, 2.78, 2.18, 11.59, repro,
2015-08-30,2.99, 1.22, -1.60, 2.38, 1.99, 10.37, repro,
2015-08-31,2.96, 0.97, -11.69, 2.34, 2.01, 10.14, repro,
2015-09-01,1.16, -0.38, -4.78, 2.53, 2.15, 10.79, repro,
2015-09-02,0.65, 1.10, 5.48, 2.43, 2.03, 10.40, repro,
2015-09-03,2.80, 0.27, -1.44, 2.38, 1.99, 10.37, repro,
2015-09-04,0.62, 1.79, -3.91, 2.43, 2.04, 10.50, repro,
2015-09-05,1.92, -0.07, -16.64, 2.49, 2.20, 10.90, repro,
2015-09-06,1.69, -1.17, -8.72, 2.47, 2.15, 10.93, repro,
2015-09-07,3.24, 0.13, -18.26, 2.52, 2.19, 11.09, repro,
2015-09-08,3.67, -0.49, 3.75, 2.48, 2.13, 10.86, repro,
2015-09-09,-2.32, -3.77, 13.85, 2.51, 2.23, 10.96, repro,
2015-09-10,1.82, -0.74, -6.81, 2.83, 2.52, 11.70, repro,
2015-09-11,2.97, -2.11, -19.80, 2.83, 2.68, 12.09, repro,
2015-09-12,-1.43, -2.64, -3.99, 2.78, 2.51, 11.99, repro,
2015-09-13,-2.45, -0.91, 6.11, 2.75, 2.52, 11.83, repro,
2015-09-14,2.01, 0.10, 10.48, 2.87, 2.54, 12.32, repro,
2015-09-15,-2.24, 0.14, 34.66, 4.40, 3.89, 19.20, repro,
2015-09-16,2.86, 8.39, 0.31, 2.93, 2.64, 12.73, repro,
2015-09-17,0.35, 0.77, -12.69, 2.95, 2.59, 12.78, repro,
2015-09-18,2.80, -2.62, -6.90, 2.89, 2.54, 12.19, repro,
2015-09-19,3.14, -2.27, -6.42, 2.86, 2.65, 12.38, repro,
2015-09-20,3.91, 1.65, -25.82, 3.51, 2.89, 13.70, repro,
2015-09-21,1.68, -1.56, -1.16, 2.94, 2.57, 12.66, repro,
2015-09-22,0.85, -1.59, 10.02, 2.95, 2.48, 12.29, repro,
2015-09-23,0.49, -3.04, -10.99, 3.48, 2.81, 14.60, repro,
2015-09-24,1.08, 0.44, -8.31, 3.22, 2.70, 14.35, repro,
2015-09-25,1.96, -1.50, -3.65, 3.15, 2.79, 13.99, repro,
2015-09-26,-2.30, 3.59, 0.61, 3.85, 3.18, 15.84, repro,
2015-09-27,-1.55, 1.82, 16.95, 3.25, 3.09, 14.11, repro,
2015-09-28,1.50, -3.78, -7.37, 3.37, 2.80, 14.81, repro,
2015-09-29,0.63, -3.12, -13.89, 3.43, 2.98, 15.41, repro,
2015-09-30,3.65, -4.09, -8.13, 3.34, 2.97, 15.06, repro,
2015-10-01,2.94, 0.11, -6.01, 3.46, 2.94, 15.78, repro,
2015-10-02,2.91, 3.44, -39.51, 4.18, 3.27, 17.52, repro,
2015-10-03,1.26, -1.55, -16.00, 3.43, 2.80, 15.10, repro,
2015-10-04,1.57, 5.47, -15.27, 3.33, 2.95, 15.37, repro,
2015-10-05,0.37, -3.03, -15.96, 3.45, 2.75, 15.30, repro,
2015-10-06,-1.49, 1.27, -6.78, 3.53, 3.11, 15.24, repro,
2015-10-07,3.92, 1.26, -23.37, 3.57, 3.19, 15.35, repro,
2015-10-08,3.03, 0.66, -11.01, 3.36, 2.95, 14.44, repro,
2015-10-09,1.08, -1.67, -8.54, 3.18, 2.57, 14.46, repro,
2015-10-10,4.89, -2.43, -18.18, 4.43, 3.72, 20.08, repro,
2015-10-11,3.56, -3.47, -14.61, 4.50, 3.86, 21.56, repro,
2015-10-12,5.53, -0.90, -14.49, 5.03, 4.32, 23.26, repro,
2015-10-13,6.23, 2.53, -17.71, 5.16, 4.14, 23.98, repro,
2015-10-14,12.02, -3.89, -23.42, 4.72, 4.18, 25.68, repro,
2015-10-15,2.15, -0.55, -6.13, 4.83, 3.85, 25.45, repro,
2015-10-16,4.94, -3.06, -28.00, 4.80, 3.50, 24.65, repro,
2015-10-17,6.61, -3.37, -24.89, 4.83, 4.25, 25.26, repro,
2015-10-18,1.23, 2.77, 3.09, 5.32, 5.30, 31.26, repro,
2015-10-19,6.80, -8.91, -39.02, 4.52, 4.10, 23.13, repro,
2015-10-20,5.62, 1.21, -24.48, 5.68, 5.26, 27.12, repro,
2015-10-21,-0.94, -3.05, -15.55, 4.98, 3.84, 22.29, repro,
2015-10-22,5.00, -6.22, -18.60, 4.70, 3.92, 24.88, repro,
2015-10-23,-1.28, -2.70, -5.90, 6.52, 4.79, 31.26, repro,
2015-10-24,5.83, 0.66, -27.21, 5.14, 4.16, 23.41, repro,
2015-10-25,7.44, -5.18, -53.21, 7.40, 6.04, 36.21, repro,
2015-10-26,7.41, -0.42, -12.14, 6.47, 5.00, 30.12, repro,
2015-10-27,3.17, 0.12, -2.75, 4.71, 4.70, 26.45, repro,
2015-10-28,2.99, 0.81, 22.65, 5.82, 4.44, 27.65, repro,
2015-10-29,3.82, 1.29, 13.37, 5.86, 4.97, 28.71, repro,
2015-10-30,0.20, -1.39, -23.06, 5.03, 5.02, 27.63, repro,
2015-10-31,3.52, -0.79, -19.55, 4.48, 4.13, 25.21, repro,
2015-11-01,5.06, -0.80, -22.48, 4.81, 3.80, 23.97, repro,
2015-11-02,9.75, -1.57, -30.22, 5.17, 4.68, 27.30, repro,
2015-11-03,1.52, 0.00, -2.17, 4.71, 5.00, 27.35, repro,
2015-11-04,1.41, 2.35, 7.38, 4.64, 3.93, 24.17, repro,
2015-11-05,5.20, -9.61, -54.87, 5.19, 4.77, 26.66, repro,
2015-11-06,4.27, -0.21, -12.58, 5.82, 3.85, 27.48, repro,
2015-11-07,2.63, -4.64, -15.49, 5.64, 6.55, 35.42, repro,
2015-11-08,3.53, -1.38, -5.86, 5.74, 6.17, 36.26, repro,
2015-11-09,-4.48, -3.18, 6.40, 5.33, 5.08, 26.66, repro,
2015-11-10,3.35, -3.51, -12.12, 5.80, 4.94, 29.12, repro,
2015-11-11,0.76, -5.42, -17.67, 5.25, 4.32, 25.38, repro,
2015-11-12,4.99, -0.64, -19.61, 5.12, 4.07, 25.72, repro,
2015-11-13,6.13, -0.03, 5.53, 8.90, 5.71, 53.54, repro,
2015-11-14,1.31, -3.41, -20.88, 5.54, 5.28, 28.84, repro,
2015-11-15,1.06, 0.61, 1.65, 4.75, 4.15, 25.20, repro,
2015-11-16,5.52, -0.60, -13.59, 5.03, 4.30, 26.20, repro,
2015-11-17,6.13, -1.14, -1.62, 5.88, 5.45, 29.10, repro,
2015-11-18,9.51, -0.56, -38.38, 6.68, 6.56, 36.65, repro,
2015-11-19,1.80, 0.31, -3.97, 2.34, 2.00, 10.38, repro,
2015-11-20,3.16, 1.60, -18.09, 2.35, 2.04, 10.44, repro,
2015-11-21,2.78, -0.62, -21.76, 2.38, 2.04, 10.62, repro,
2015-11-22,1.46, -0.24, -1.17, 2.43, 2.05, 10.69, repro,
2015-11-23,0.51, -0.99, 2.70, 2.40, 2.05, 10.63, repro,
2015-11-24,2.72, 3.09, -0.37, 2.40, 2.03, 10.56, repro,
2015-11-25,2.55, 3.67, -12.16, 2.38, 2.10, 10.70, repro,
2015-11-26,1.82, 2.02, -14.40, 2.41, 2.04, 10.53, repro,
2015-11-27,3.03, 0.10, -16.52, 2.37, 2.03, 10.66, repro,
2015-11-28,0.64, -0.60, 1.59, 2.36, 2.05, 10.47, repro,
2015-11-29,0.49, -0.57, 1.49, 2.38, 2.04, 10.67, repro,
2015-11-30,3.71, -0.47, -12.80, 2.34, 2.01, 10.44, repro,
2015-12-01,2.54, -1.13, -12.57, 2.34, 2.03, 10.58, repro,
2015-12-02,1.64, 1.25, -14.26, 2.40, 2.05, 10.90, repro,
2015-12-03,1.88, -0.53, -14.03, 2.38, 2.12, 11.04, repro,
2015-12-04,2.05, -0.34, -13.70, 2.35, 2.04, 10.58, repro,
2015-12-05,2.34, -0.32, -10.30, 2.41, 2.00, 10.56, repro,
2015-12-06,1.53, -0.32, -8.11, 2.33, 1.99, 10.42, repro,
2015-12-07,1.98, -0.58, -9.76, 2.34, 2.09, 10.84, repro,
2015-12-08,0.81, -0.05, -6.96, 2.40, 2.06, 11.03, repro,
2015-12-09,3.44, 1.17, -12.17, 2.69, 2.63, 13.08, repro,
2015-12-10,2.01, -0.61, -14.62, 2.35, 2.14, 10.89, repro,
2015-12-11,5.52, 1.60, -7.55, 2.39, 2.15, 11.05, repro,
2015-12-12,1.83, -1.83, -4.49, 2.33, 2.07, 10.73, repro,
2015-12-13,2.55, 1.60, -14.37, 2.34, 2.07, 10.82, repro,
2015-12-14,1.95, -1.83, 1.33, 2.37, 2.02, 10.71, repro,
2015-12-15,2.67, -1.01, -8.88, 2.35, 2.17, 11.01, repro,
2015-12-16,1.18, -0.81, -6.93, 2.34, 2.08, 10.60, repro,
2015-12-17,1.98, 1.50, -23.42, 2.92, 2.71, 13.93, repro,
2015-12-18,3.02, 0.84, -11.72, 2.39, 2.02, 10.55, repro,
2015-12-19,2.68, 0.57, -5.74, 2.37, 2.02, 10.59, repro,
2015-12-20,2.90, -0.71, -4.36, 2.47, 2.18, 11.16, repro,
2015-12-21,4.28, -0.77, -16.21, 2.35, 1.97, 10.67, repro,
2015-12-22,4.12, -1.69, -17.55, 2.37, 2.01, 10.71, repro,
2015-12-23,-0.13, 3.07, -5.74, 2.32, 2.03, 10.40, repro,
2015-12-24,2.95, -0.68, 2.09, 2.34, 2.00, 10.41, repro,
2015-12-25,0.49, 1.67, -15.39, 2.34, 1.99, 10.35, repro,
2015-12-26,1.13, -2.16, -5.84, 2.34, 1.99, 10.53, repro,
2015-12-27,0.62, 0.32, -7.49, 2.34, 1.98, 10.34, repro,
2015-12-28,0.67, -2.05, -9.36, 2.30, 1.97, 10.18, repro,
2015-12-29,1.48, -0.19, -9.90, 2.33, 1.98, 10.32, repro,
2015-12-30,3.93, -1.35, -22.55, 2.42, 1.99, 10.64, repro,
2015-12-31,2.53, -0.20, -12.01, 2.32, 1.98, 10.24, repro,
2016-01-01,3.31, 0.70, -13.10, 2.35, 1.97, 10.39, repro,
2016-01-02,0.01, -0.42, -3.71, 2.36, 2.00, 10.46, repro,
2016-01-03,2.44, 0.13, -8.06, 2.34, 1.97, 10.46, repro,
2016-01-04,3.60, -2.57, -5.58, 2.33, 1.97, 10.32, repro,
2016-01-05,1.24, -0.82, -1.14, 2.41, 2.01, 10.82, repro,
2016-01-06,1.02, 2.84, -15.20, 2.32, 1.95, 10.29, repro,
2016-01-07,1.87, 1.30, -16.28, 2.36, 2.01, 10.50, repro,
2016-01-08,1.33, -0.35, -14.01, 2.41, 2.06, 10.77, repro,
2016-01-09,1.18, 1.53, -21.42, 2.33, 2.05, 10.42, repro,
2016-01-10,1.95, 0.47, -17.52, 2.33, 1.94, 10.16, repro,
2016-01-11,-0.11, -1.34, -11.46, 2.36, 2.10, 10.63, repro,
2016-01-12,2.07, 0.55, -24.34, 2.33, 1.95, 10.34, repro,
2016-01-13,-2.43, 0.48, -0.94, 2.35, 2.01, 10.64, repro,
2016-01-14,-0.66, 2.13, -11.78, 2.33, 2.00, 10.22, repro,
2016-01-15,3.61, 1.10, -12.61, 2.44, 2.04, 10.66, repro,
2016-01-16,0.75, -0.73, -11.52, 2.34, 2.01, 10.50, repro,
2016-01-17,3.02, -0.04, -25.38, 2.37, 2.03, 10.72, repro,
2016-01-18,1.58, 0.82, -2.80, 2.33, 1.98, 10.36, repro,
2016-01-19,1.16, 3.86, -9.49, 2.35, 2.05, 10.47, repro,
2016-01-20,2.78, 1.45, -13.77, 2.38, 1.98, 10.35, repro,
2016-01-21,0.14, -0.99, -9.16, 2.35, 1.95, 10.33, repro,
2016-01-22,1.54, -1.09, -13.43, 2.35, 1.97, 10.28, repro,
2016-01-23,1.12, 0.00, -15.76, 2.34, 1.95, 10.37, repro,
2016-01-24,-0.94, -2.49, -11.86, 2.34, 2.03, 10.48, repro,
2016-01-25,0.35, -0.41, -12.28, 2.38, 1.99, 10.62, repro,
2016-01-26,1.16, -1.35, -18.08, 2.35, 1.97, 10.39, repro,
2016-01-27,0.72, -0.21, -16.83, 2.39, 2.04, 10.64, repro,
2016-01-28,1.83, -0.19, -18.23, 2.37, 1.97, 10.59, repro,
2016-01-29,2.39, -2.99, -2.80, 2.42, 1.97, 10.90, repro,
2016-01-30,1.76, -2.11, 1.75, 2.38, 2.05, 10.78, repro,
2016-01-31,1.03, -1.85, 9.23, 2.41, 1.97, 10.45, repro,
2016-02-01,3.91, -0.08, -13.70, 2.38, 1.97, 10.63, repro,
2016-02-02,0.71, -1.94, -14.97, 2.35, 1.96, 10.43, repro,
2016-02-03,1.16, -0.12, -23.02, 2.33, 1.97, 10.36, repro,
2016-02-04,0.50, -1.65, -25.57, 2.41, 1.99, 10.81, repro,
2016-02-05,1.59, 0.69, -22.71, 2.35, 1.97, 10.41, repro,
2016-02-06,0.67, 0.05, -12.26, 2.33, 1.97, 10.16, repro,
2016-02-07,2.46, 0.14, -29.45, 2.37, 1.97, 10.36, repro,
2016-02-08,1.28, 1.36, -20.48, 2.36, 2.01, 10.49, repro,
2016-02-09,1.35, -0.77, -23.12, 2.32, 1.97, 10.33, repro,
2016-02-10,1.31, -1.29, -15.04, 2.34, 1.97, 10.28, repro,
2016-02-11,-0.30, -1.11, -13.16, 2.34, 1.98, 10.13, repro,
2016-02-12,1.71, 0.59, -19.38, 2.32, 2.00, 10.07, repro,
2016-02-13,2.24, -0.89, -19.27, 2.34, 1.95, 10.21, repro,
2016-02-14,0.80, -0.77, -24.38, 2.34, 1.96, 10.34, repro,
2016-02-15,0.44, 1.32, -13.26, 2.34, 1.95, 10.38, repro,
2016-02-16,3.22, -2.34, -21.88, 2.32, 1.99, 10.22, repro,
2016-02-17,0.49, 0.65, -12.12, 2.34, 1.95, 10.15, repro,
2016-02-18,-1.64, 2.11, -8.06, 2.34, 1.98, 10.33, repro,
2016-02-19,1.86, -2.10, -5.68, 2.36, 1.95, 10.38, repro,
2016-02-20,0.13, 0.17, -7.22, 2.35, 2.01, 10.31, repro,
2016-02-21,0.63, -0.85, -18.00, 2.35, 1.96, 10.35, repro,
2016-02-22,0.70, -1.14, -17.32, 2.39, 1.97, 10.44, repro,
2016-02-23,0.46, -0.19, -14.93, 2.39, 2.03, 10.24, repro,
2016-02-24,0.67, 0.01, -11.87, 2.33, 1.94, 10.19, repro,
2016-02-25,0.76, 0.42, -16.07, 2.36, 1.99, 10.37, repro,
2016-02-26,1.41, 1.03, -12.41, 2.42, 2.03, 10.72, repro,
2016-02-27,0.83, -1.33, -10.61, 2.54, 2.22, 11.68, repro,
2016-02-28,0.38, 0.05, -14.37, 2.35, 2.05, 10.39, repro,
2016-02-29,0.58, -1.06, -16.13, 2.41, 2.05, 10.51, repro,
2016-03-01,1.53, 1.50, -18.85, 2.36, 2.00, 10.37, repro,
2016-03-02,1.54, -0.17, -7.43, 2.31, 1.97, 10.31, repro,
2016-03-03,0.02, -0.39, -10.40, 2.31, 1.96, 10.27, repro,
2016-03-04,2.10, -1.58, -16.82, 2.34, 2.04, 10.52, repro,
2016-03-05,2.80, 2.24, -8.38, 2.35, 2.00, 10.44, repro,
2016-03-06,2.03, 1.10, -21.30, 2.36, 2.02, 10.50, repro,
2016-03-07,1.45, 2.24, -8.19, 2.39, 2.03, 10.64, repro,
2016-03-08,0.64, -0.41, -15.36, 2.46, 2.07, 11.00, repro,
2016-03-09,-0.01, -1.10, -15.34, 2.36, 2.14, 10.76, repro,
2016-03-10,0.94, -0.42, -12.36, 2.27, 1.95, 9.93, repro,
2016-03-11,1.24, 1.84, -17.39, 2.35, 2.00, 10.15, repro,
2016-03-12,1.37, 0.92, -10.33, 2.28, 1.96, 10.10, repro,
2016-03-13,-0.01, 2.26, -14.18, 2.29, 1.93, 10.01, repro,
2016-03-14,1.87, 1.06, -3.86, 2.32, 2.02, 10.10, repro,
2016-03-15,-1.17, -0.04, -19.69, 2.33, 2.07, 10.13, repro,
2016-03-16,0.43, -0.61, -15.47, 2.39, 2.08, 10.28, repro,
2016-03-17,1.43, -0.20, -8.46, 2.55, 2.16, 11.26, repro,
2016-03-18,0.69, -1.97, -4.69, 2.82, 2.29, 12.71, repro,
2016-03-19,0.11, 0.12, -17.92, 2.38, 2.00, 10.48, repro,
2016-03-20,-2.36, -1.56, -18.10, 2.30, 2.02, 10.28, repro,
2016-03-21,0.17, 2.71, -8.73, 2.27, 1.96, 9.85, repro,
2016-03-22,-1.01, 2.39, -13.61, 2.35, 1.97, 10.24, repro,
2016-03-23,-0.56, -0.94, -8.76, 2.28, 1.98, 9.98, repro,
2016-03-24,0.10, -0.42, -20.70, 2.30, 1.97, 10.09, repro,
2016-03-25,-0.96, 0.96, -5.45, 2.30, 2.04, 10.23, repro,
2016-03-26,-0.78, 0.55, -0.74, 2.36, 2.01, 9.97, repro,
2016-03-27,-0.51, -0.02, -14.45, 2.30, 2.01, 10.15, repro,
2016-03-28,0.17, 4.85, -12.05, 2.28, 2.01, 9.92, repro,
2016-03-29,-1.46, -1.12, 2.00, 2.30, 1.97, 9.92, repro,
2016-03-30,-1.83, -0.08, -14.72, 2.31, 1.98, 10.26, repro,
2016-03-31,0.10, 0.94, -13.04, 2.28, 1.96, 9.96, repro,
2016-04-01,0.73, 1.78, -16.66, 2.31, 2.04, 9.98, repro,
2016-04-02,2.13, 0.25, -16.36, 2.34, 2.05, 10.11, repro,
2016-04-03,1.81, 1.75, -13.86, 2.32, 2.00, 9.95, repro,
2016-04-04,-0.54, -1.34, -7.71, 2.32, 2.02, 10.24, repro,
2016-04-05,-2.05, 0.18, -13.34, 2.41, 2.02, 10.25, repro,
2016-04-06,0.23, -0.37, -10.26, 2.33, 2.05, 10.42, repro,
2016-04-07,1.55, -3.51, -8.57, 2.35, 2.09, 10.31, repro,
2016-04-08,0.46, 0.47, -12.50, 2.36, 2.03, 10.11, repro,
2016-04-09,3.74, -0.49, -11.79, 2.33, 2.03, 10.20, repro,
2016-04-10,-2.68, 1.81, -7.34, 2.29, 2.05, 10.29, repro,
2016-04-11,1.22, 0.06, -17.93, 2.34, 2.06, 10.69, repro,
2016-04-12,2.04, -0.10, -28.51, 2.39, 2.12, 10.73, repro,
2016-04-13,2.61, -1.71, -21.70, 2.33, 2.00, 10.09, repro,
2016-04-14,-2.75, 4.11, 9.68, 2.29, 2.02, 9.97, repro,
2016-04-15,2.84, -1.02, -11.40, 2.36, 2.02, 10.08, repro,
2016-04-16,1.40, -1.77, -13.52, 2.31, 1.98, 10.13, repro,
2016-04-17,1.85, -1.77, -17.97, 2.38, 2.23, 10.97, repro,
2016-04-18,3.67, 0.60, -18.94, 2.30, 1.98, 9.99, repro,
2016-04-19,0.81, -0.45, -3.85, 2.42, 2.03, 10.29, repro,
2016-04-20,0.67, -0.98, -3.41, 2.35, 2.06, 10.36, repro,
2016-04-21,0.05, -0.76, -12.06, 2.42, 2.03, 10.42, repro,
2016-04-22,3.99, -0.06, -16.05, 2.34, 2.08, 10.73, repro,
2016-04-23,4.48, -2.96, -28.11, 2.34, 2.08, 10.48, repro,
2016-04-24,1.64, -0.29, -1.98, 2.29, 2.07, 10.09, repro,
2016-04-25,1.30, 1.11, -3.70, 2.37, 2.02, 10.21, repro,
2016-04-26,0.42, -1.82, -9.43, 2.32, 1.99, 10.11, repro,
2016-04-27,-1.66, -3.52, 5.53, 2.34, 2.01, 10.27, repro,
2016-04-28,1.69, -2.06, -11.29, 2.31, 2.02, 10.13, repro,
2016-04-29,2.17, -0.89, -15.82, 2.33, 2.05, 10.22, repro,
2016-04-30,0.69, -2.56, -4.00, 2.34, 2.05, 10.14, repro,
2016-05-01,3.10, -2.84, -14.16, 2.31, 2.00, 9.94, repro,
2016-05-02,0.50, -3.73, -10.84, 2.41, 2.03, 10.41, repro,
2016-05-03,0.88, -2.95, -6.31, 2.35, 2.03, 10.25, repro,
2016-05-04,-0.46, -3.90, -14.81, 2.40, 2.05, 10.25, repro,
2016-05-05,1.47, -1.61, -17.30, 2.50, 2.09, 10.86, repro,
2016-05-06,1.45, -2.27, -15.18, 2.51, 2.08, 10.67, repro,
2016-05-07,0.79, -2.53, -6.06, 2.38, 2.05, 10.27, repro,
2016-05-08,-1.33, -3.87, -4.28, 2.43, 2.13, 10.71, repro,
2016-05-09,0.88, -2.13, -9.65, 2.38, 2.07, 10.48, repro,
2016-05-10,-0.40, -1.06, -11.84, 2.31, 2.01, 10.01, repro,
2016-05-11,1.32, -1.27, -22.81, 2.47, 2.06, 10.27, repro,
2016-05-12,2.46, -1.14, -24.65, 2.33, 1.99, 9.98, repro,
2016-05-13,-0.19, -1.96, -12.30, 2.34, 1.98, 10.04, repro,
2016-05-14,0.31, -1.83, -13.53, 2.36, 2.05, 10.51, repro,
2016-05-15,-0.47, -1.96, -1.91, 2.32, 2.02, 10.03, repro,
2016-05-16,3.63, 1.22, -30.69, 2.46, 2.03, 10.52, repro,
2016-05-17,1.43, -2.37, -13.33, 2.35, 2.01, 10.20, repro,
2016-05-18,1.41, -0.20, -21.99, 2.33, 1.99, 10.14, repro,
2016-05-19,-1.92, -0.60, -9.48, 2.37, 2.03, 10.26, repro,
2016-05-20,-0.17, 0.91, -6.59, 2.32, 1.98, 10.03, repro,
2016-05-21,0.78, 1.71, -24.23, 2.38, 2.03, 10.13, repro,
2016-05-22,-0.33, -0.50, -17.42, 2.31, 1.99, 10.03, repro,
2016-05-23,0.44, -1.16, -26.76, 2.31, 2.01, 10.10, repro,
2016-05-24,1.22, -3.59, -23.56, 2.32, 2.05, 10.36, repro,
2016-05-25,1.35, -2.98, -13.72, 2.27, 1.97, 9.83, repro,
2016-05-26,1.31, -1.42, -16.43, 2.45, 2.14, 10.39, repro,
2016-05-27,0.30, 1.27, -16.47, 2.48, 2.05, 10.55, repro,
2016-05-28,1.10, -0.73, -18.97, 2.37, 2.03, 10.38, repro,
2016-05-29,-0.89, -2.87, -17.21, 2.30, 1.98, 10.06, repro,
2016-05-30,-3.39, -1.92, -20.53, 2.34, 2.07, 10.43, repro,
2016-05-31,-2.74, -2.20, -13.52, 2.39, 2.02, 10.21, repro,
2016-06-01,1.74, 0.02, -25.62, 2.36, 2.11, 10.40, repro,
2016-06-02,-0.94, -0.94, -14.44, 2.30, 1.98, 9.96, repro,
2016-06-03,2.27, -3.25, -21.31, 2.37, 2.13, 10.66, repro,
2016-06-04,1.19, -2.25, -26.06, 2.40, 2.18, 10.94, repro,
2016-06-05,-0.32, -0.11, -14.84, 2.33, 2.02, 10.10, repro,
2016-06-06,2.99, -1.05, -13.91, 2.34, 2.01, 10.16, repro,
2016-06-07,2.25, -0.88, -8.11, 2.34, 2.00, 10.31, repro,
2016-06-08,1.23, -0.27, -22.34, 2.33, 1.99, 10.29, repro,
2016-06-09,1.29, -3.24, -20.29, 2.38, 2.11, 10.72, repro,
2016-06-10,-0.80, -0.36, -16.61, 2.31, 2.00, 10.00, repro,
2016-06-11,-0.99, -4.18, -4.42, 2.33, 2.05, 10.28, repro,
2016-06-12,-0.47, -5.19, -18.07, 2.37, 2.06, 10.35, repro,
2016-06-13,-0.18, -1.76, -10.12, 2.34, 1.99, 10.13, repro,
2016-06-14,-0.50, -1.92, -20.15, 2.41, 2.16, 10.88, repro,
2016-06-15,1.38, -3.83, -6.36, 2.36, 2.09, 10.54, repro,
2016-06-16,-0.02, -2.36, -5.98, 2.34, 2.04, 10.18, repro,
2016-06-17,1.92, 2.69, -11.16, 2.32, 2.07, 10.14, repro,
2016-06-18,2.20, -1.20, -18.47, 2.30, 1.96, 10.05, repro,
2016-06-19,0.99, 0.75, -14.88, 2.33, 2.00, 10.20, repro,
2016-06-20,-4.81, -1.13, -13.80, 2.35, 2.17, 10.64, repro,
2016-06-21,-0.75, 1.80, -13.92, 2.37, 2.13, 10.45, repro,
2016-06-22,1.04, 0.65, -17.97, 2.32, 2.09, 10.21, repro,
2016-06-23,1.87, -1.80, -11.31, 2.32, 2.08, 10.11, repro,
2016-06-24,1.13, -2.63, 5.77, 2.36, 2.10, 10.43, repro,
2016-06-25,-0.12, -3.32, -3.95, 2.35, 2.06, 10.38, repro,
2016-06-26,0.36, -0.83, -15.29, 2.41, 2.09, 10.79, repro,
2016-06-27,0.19, -0.96, -22.95, 2.36, 2.11, 10.54, repro,
2016-06-28,1.79, -1.97, -19.51, 2.31, 2.01, 10.05, repro,
2016-06-29,0.22, -1.75, -9.28, 2.37, 2.00, 10.36, repro,
2016-06-30,-0.28, -2.30, -13.38, 2.42, 2.17, 10.99, repro,
2016-07-01,-0.14, -2.32, -7.13, 2.35, 2.06, 10.39, repro,
2016-07-02,-2.66, -2.49, -14.53, 2.37, 2.10, 10.45, repro,
2016-07-03,-4.23, -4.09, -14.07, 2.39, 2.06, 10.49, repro,
2016-07-04,0.47, -1.09, -18.75, 2.41, 2.12, 10.61, repro,
2016-07-05,1.40, -4.14, -14.64, 2.38, 2.17, 10.82, repro,
2016-07-06,0.10, -2.32, -15.90, 2.93, 2.71, 12.79, repro,
2016-07-07,-0.52, -1.27, -10.37, 2.40, 2.13, 10.65, repro,
2016-07-08,-0.14, -3.47, -20.22, 2.33, 2.01, 10.04, repro,
2016-07-09,2.81, -2.19, -25.23, 2.49, 2.19, 10.85, repro,
2016-07-10,1.52, -1.49, -12.58, 2.74, 2.37, 12.30, repro,
2016-07-11,-2.24, -4.26, -0.87, 2.36, 2.10, 10.61, repro,
2016-07-12,-2.10, -2.29, -13.32, 2.39, 2.01, 10.42, repro,
2016-07-13,-1.02, -3.95, -9.24, 2.34, 2.01, 10.36, repro,
2016-07-14,1.16, -2.52, -19.15, 2.44, 2.14, 10.58, repro,
2016-07-15,-0.35, -0.29, -10.82, 2.33, 2.01, 10.21, repro,
2016-07-16,-0.92, -2.85, -12.84, 2.36, 2.08, 10.46, repro,
2016-07-17,-0.17, -2.98, -16.75, 2.36, 2.01, 10.38, repro,
2016-07-18,-2.85, 0.60, -15.65, 2.34, 2.01, 10.16, repro,
2016-07-19,1.27, -3.08, -17.93, 2.34, 2.01, 10.22, repro,
2016-07-20,1.58, -1.91, -24.52, 2.37, 2.06, 10.21, repro,
2016-07-21,0.91, -2.10, -21.25, 2.35, 2.07, 10.14, repro,
2016-07-22,-0.22, -3.82, -13.00, 2.34, 2.04, 10.20, repro,
2016-07-23,-0.87, -3.23, -10.25, 2.42, 2.00, 10.27, repro,
2016-07-24,-2.94, -0.92, -0.67, 2.35, 2.02, 10.38, repro,
2016-07-25,-1.47, -4.94, -7.88, 2.37, 2.07, 10.35, repro,
2016-07-26,-1.25, -2.98, -14.08, 2.84, 2.45, 12.65, repro,
2016-07-27,-3.04, -4.15, -0.08, 2.42, 2.06, 10.71, repro,
2016-07-28,-1.03, -1.68, -7.75, 2.41, 2.06, 10.56, repro,
2016-07-29,-1.76, -0.27, -7.24, 2.40, 2.01, 10.40, repro,
2016-07-30,-0.80, -1.61, -5.25, 2.32, 2.00, 10.21, repro,
2016-07-31,2.06, -1.28, -23.09, 2.36, 2.07, 10.56, repro,
2016-08-01,1.85, -3.02, -1.42, 2.29, 2.03, 10.03, repro,
2016-08-02,-0.51, -2.80, -13.20, 2.35, 1.96, 10.29, repro,
2016-08-03,-0.72, -0.73, -17.81, 2.35, 2.04, 10.32, repro,
2016-08-04,-1.67, -0.82, -16.67, 2.32, 1.98, 10.16, repro,
2016-08-06,1.65, -3.14, -18.95, 2.32, 2.05, 10.30, repro,
2016-08-07,-0.83, -3.19, -13.09, 2.36, 2.02, 10.27, repro,
2016-08-08,0.26, -5.66, -14.24, 2.38, 2.04, 10.51, repro,
2016-08-09,-1.55, -1.31, -21.59, 2.34, 1.99, 10.36, repro,
2016-08-10,-0.77, -1.15, -11.56, 2.33, 1.99, 10.26, repro,
2016-08-11,0.15, -1.71, -18.26, 2.30, 1.97, 9.91, repro,
2016-08-12,-0.04, -2.80, -21.90, 2.28, 1.97, 9.95, repro,
2016-08-13,0.45, -4.26, -6.58, 2.29, 1.98, 10.14, repro,
2016-08-14,-0.14, -1.70, -10.11, 2.34, 2.07, 10.22, repro,
2016-08-15,0.86, 0.62, -1.47, 2.38, 2.00, 10.38, repro,
2016-08-16,2.60, -1.10, -26.25, 2.39, 2.10, 10.68, repro,
2016-08-17,-1.71, -2.78, -12.47, 2.28, 1.97, 9.84, repro,
2016-08-18,-1.76, -1.98, -10.50, 2.36, 2.12, 10.56, repro,
2016-08-19,-2.05, -1.03, -14.75, 2.42, 2.08, 10.44, repro,
2016-08-20,0.14, -3.47, -6.07, 2.37, 2.05, 10.26, repro,
2016-08-21,1.50, -0.82, -17.75, 2.37, 2.08, 10.50, repro,
2016-08-22,-0.56, -2.55, -14.61, 2.29, 1.99, 9.95, repro,
2016-08-23,-0.24, -2.40, -2.66, 2.34, 2.02, 10.11, repro,
2016-08-24,-0.39, -2.82, -12.40, 2.30, 1.97, 9.92, repro,
2016-08-25,1.07, -3.21, -19.36, 2.42, 2.09, 10.50, repro,
2016-08-26,0.64, -3.95, -9.51, 2.37, 2.06, 10.43, repro,
2016-08-27,-0.32, -1.38, -25.47, 2.38, 2.01, 10.37, repro,
2016-08-28,-0.51, -1.51, -23.29, 2.32, 1.99, 10.07, repro,
2016-08-29,-1.03, -2.47, -16.82, 2.31, 2.03, 10.13, repro,
2016-08-30,-2.21, -3.11, -20.68, 2.34, 2.00, 10.17, repro,
2016-08-31,-2.17, -0.76, -11.62, 2.38, 2.06, 10.33, repro,
2016-09-01,-1.62, -4.21, -5.77, 2.31, 2.00, 10.01, repro,
2016-09-02,-0.40, -4.51, -21.03, 2.57, 2.29, 11.50, repro,
2016-09-03,-1.26, -2.46, -15.70, 2.34, 2.08, 10.28, repro,
2016-09-04,-1.00, -2.04, 8.21, 2.33, 2.03, 10.24, repro,
2016-09-05,1.36, -2.91, -19.30, 2.37, 1.97, 10.22, repro,
2016-09-06,-0.25, -3.51, -1.68, 2.33, 2.01, 10.18, repro,
2016-09-07,-2.00, -3.65, 1.46, 2.44, 2.08, 10.68, repro,
2016-09-08,-2.33, -0.90, -14.89, 2.46, 2.19, 10.89, repro,
2016-09-09,-3.20, -3.09, -10.91, 2.38, 2.04, 10.24, repro,
2016-09-10,-3.27, -2.71, -12.44, 2.34, 1.97, 9.95, repro,
2016-09-11,-1.89, -2.25, -6.54, 2.31, 1.98, 9.97, repro,
2016-09-12,-1.53, -0.33, 10.97, 2.31, 1.96, 9.83, repro,
2016-09-13,-2.44, 2.44, -6.34, 2.36, 2.09, 10.43, repro,
2016-09-14,-2.42, -0.96, -16.99, 2.35, 2.06, 10.22, repro,
2016-09-15,-2.33, -4.46, -14.22, 2.41, 2.07, 10.43, repro,
2016-09-16,-1.25, -3.97, -6.17, 2.37, 1.99, 10.46, repro,
2016-09-17,-2.79, -3.18, 8.12, 2.30, 1.92, 9.76, repro,
2016-09-18,0.67, -2.15, -8.38, 2.33, 1.94, 10.03, repro,
2016-09-19,-1.44, -1.71, -8.22, 2.36, 2.09, 10.33, repro,
2016-09-20,-3.79, -3.91, -3.96, 2.29, 1.94, 9.81, repro,
2016-09-21,-3.05, -3.38, 5.12, 2.26, 1.93, 9.71, repro,
2016-09-22,0.28, -1.88, -17.69, 2.34, 2.02, 10.26, repro,
2016-09-23,-0.78, -4.14, -1.05, 2.37, 2.01, 10.55, repro,